Hourly Weather Roundup
Issued by NWS Central Illinois

Home | Current Version | Previous Version | Text Only | Print | Product List | Glossary On
Versions: 1 2 3 4 5 6 7 8 9 10 11 12 13 14 15 16 17 18 19 20 21 22 23 24 25 26 27 28 29 30 31 32 33 34 35 36 37 38 39 40 41 42 43 44 45 46 47 48 49 50
000
NZUS43 KILX 280410
HWRILX

AREA WEATHER ROUNDUP
NATIONAL WEATHER SERVICE, LINCOLN IL
1100 PM CDT THU AUG 27 2015


CITY           SKY/WX    TMP DP  RH WIND       PRES   REMARKS
BLOOMINGTON    CLEAR     65  59  81 E3        30.14R
CHAMPAIGN      CLEAR     63  59  87 E6        30.12R
DANVILLE       CLEAR     61  59  92 NE5       30.10R
DECATUR        CLEAR     61  56  83 CALM      30.12R
EFFINGHAM      CLEAR     60  58  91 CALM      30.11S
FLORA          CLEAR     60  57  91 CALM      30.10S
GALESBURG      CLEAR     60  57  89 SE3       30.09F
JACKSONVILLE   CLEAR     61  58  88 CALM      30.10S
LACON          CLEAR     59  58  94 CALM      30.11S
LAWRENCEVILLE  CLEAR     63  59  87 SE3       30.10F
LITCHFIELD     CLEAR     59  56  92 CALM      30.11S
$$


CITY           SKY/WX    TMP DP  RH WIND       PRES   REMARKS
LINCOLN        CLEAR     62  58  85 CALM      30.12R
MACOMB         CLEAR     58  57  97 E3        30.11F
MATTOON        CLEAR     61  58  90 CALM      30.10S
MT CARMEL AP   CLEAR     61  57  88 CALM      30.10S
OLNEY-NOBLE AP CLEAR     59  59 100 CALM      30.10S
PARIS          FAIR      60  59  96 E3        30.12S
PEORIA         CLEAR     64  57  78 E5        30.11F
PONTIAC        CLEAR     59  58  96 CALM      30.14S
RANTOUL        CLEAR     65  60  82 E5        30.12S
ROBINSON       CLEAR     58  56  94 CALM      30.11S
SPRINGFIELD    NOT AVBL
TAYLORVILLE    CLEAR     59  57  94 CALM      30.11S
$$

...REGIONAL REPORTS...


CITY           SKY/WX    TMP DP  RH WIND       PRES   REMARKS
CHICAGO O`HARE NOT AVBL
KANKAKEE       CLEAR     59  57  91 CALM      30.14S
MOLINE         PTCLDY    62  58  86 E3        30.10R
MOUNT STERLING CLEAR     58  56  94 CALM      30.09S
MOUNT VERNON   CLEAR     57  52  82 CALM      30.10S
PITTSFIELD     CLEAR     60  58  94 CALM      30.10F
QUINCY         CLEAR     64  58  80 E6        30.08S
ROCKFORD       PTCLDY    59  55  87 SE6       30.13F
$$


CITY           SKY/WX    TMP DP  RH WIND       PRES   REMARKS
BURLINGTON     CLEAR     64  59  83 SE7       30.07F
CEDAR RAPIDS   CLEAR     60  60 100 E6        30.08S
DES MOINES     MOCLDY    69  60  73 SE14G21   30.03R
KIRKSVILLE     MOCLDY    63  59  87 SE5       30.08R
OTTUMWA        PTCLDY    62  60  93 SE9       30.05S
ST LOUIS       NOT AVBL
$$


CITY           SKY/WX    TMP DP  RH WIND       PRES   REMARKS
TERRE HAUTE    CLEAR     60  58  92 CALM      30.11S
EVANSVILLE     CLEAR     65  60  84 CALM      30.11S
INDIANAPOLIS   PTCLDY    66  57  72 SE9       30.11S
LAFAYETTE      CLEAR     62  57  83 CALM      30.12S
MADISON        MOCLDY    65  57  75 S7        30.11S
MILWAUKEE      MOCLDY    61  55  81 S6        30.13F
$$





USA.gov is the U.S. government's official web portal to all federal, state and local government web resources and services.